SCP
0 0 0 0 0 0 0 0 0 0 0 0 0 0 0 0 0 0 0 0 0 0 0 0 0 0 0 0 0 0 0 0 0 0 0 0 0 0 0 0 0 0 0
0 0 0 0 0 0 0 0 0 0 0 0 0 0 0 0 0 0 0 0 0 0 0 0 0 0 0 0 0 0 0 0 0 0 0 0 0 0 0 0 0 0 0
0 0 0 0 0 0 0 0 0 0 0 0 0 0 0 0 0 0 0 0 0 0 0 0 0 0 0 0 0 0 0 0 0 0 0 0 0 0 0 0 0 0 0
0 0 0 0 0 0 0 0 0 0 0 0 0 0 0 0 0 0 0 0 0 0 0 0 0 0 0 0 0 0 0 0 0 0 0 0 0 0 0 0 0 0 0
0 0 0 0 0 0 0 0 0 0 0 0 0 0 0 0 0 0 0 0 0 0 0 0 0 0 0 0 0 0 0 0 0 0 0 0 0 0 0 0 0 0 0
0 0 0 0 0 0 0 0 0 0 0 0 0 0 0 0 0 0 0 0 0 0 0 0 0 0 0 0 0 0 0 0 0 0 0 0 0 0 0 0 0 0 0
0 0 0 0 0 0 0 0 0 0 0 0 0 0 0 0 0 0 0 0 0 0 0 0 0 0 0 0 0 0 0 0 0 0 0 0 0 0 0 0 0 0 0
0 0 0 0 0 0 0 0 0 0 0 0 0 0 0 0 0 0 0 0 0 0 0 0 0 0 0 0 0 0 0 0 0 0 0 0 0 0 0 0 0 0 0
0 0 0 0 0 0 0 0 0 0 0 0 0 0 0 0 0 0 0 0 0 0 0 0 0 0 0 0 0 0 0 0 0 0 0 0 0 0 0 0 0 0 0
0 0 0 0 0 0 0 0 0 0 0 0 0 0 0 0 0 0 0 0 0 0 0 0 0 0 0 0 0 0 0 0 0 0 0 0 0 0 0 0 0 0 0
0 0 0 0 0 0 0 0 0 0 0 0 0 0 0 0 0 0 0 0 0 0 0 0 0 0 0 0 0 0 0 0 0 0 0 0 0 0 0 0 0 0 0
0 0 0 0 0 0 0 0 0 0 0 0 0 0 0 0 0 0 0 0 0 0 0 0 0 0 0 0 0 0 0 0 0 0 0 0 0 0 0 0 0 0 0
0 0 0 0 0 0 0 0 0 0 0 0 0 0 0 0 0 0 0 0 0 0 0 0 0 0 0 0 0 0 0 0 0 0 0 0 0 0 0 0 0 0 0
0 0 0 0 0 0 0 0 0 0 0 0 0 0 0 0 0 0 0 0 0 0 0 0 0 0 0 0 0 0 0 0 0 0 0 0 0 0 0 0 0 0 0
0 0 0 0 0 0 0 0 0 0 0 0 0 0 0 0 0 0 0 0 0 0 0 0 0 0 0 0 0 0 0 0 0 0 0 0 0 0 0 0 0 0 0
0 0 0 0 0 0 0 0 0 0 0 0 0 0 0 0 0 0 0 0 0 0 0 0 0 0 0 0 0 0 0 0 0 0 0 0 0 0 0 0 0 0 0
0 0 0 0 0 0 0 -0 -0 -0 0 0 0 0 0 0 0 0 0 0 0 0 0 0 0 0 0 0 0 0 0 0 0 0 0 0 0 0 0 0 0 0 0
0 0 0 0 0 0 0 -0 -0 -0 0 0 0 0 0 0 0 0 0 0 0 0 0 0 0 0 0 0 0 0 0 0 0 0 0 0 0 0 0 0 0 0 0
0 0 0 0 0 0 0 -0 -0 0 0 0 0 0 0 0 0 0 0 0 0 0 0 0 0 0 0 0 0 0 0 0 0 0 0 0 0 0 0 0 0 0 0
0 0 0 0 0 0 0 0 0 0 0 0 0 0 0 0 0 0 0 0 0 0 0 0 0 0 0 0 0 0 0 0 0 0 0 0 0 0 0 0 0 0 0
0 0 0 0 0 0 0 0 0 0 0 0 0 0 0 0 0 0 0 0 0 0 0 0 0 0 0 0 0 0 0 0 0 0 0 0 0 0 0 0 0 0 0
0 0 0 0 0 0 0 0 0 0 0 0 0 0 0 0 0 0 0 0 0 0 0 0 0 0 0 0 0 0 0 0 0 0 0 0 0 0 0 0 0 0 0
0 0 0 0 0 0 0 0 0 0 0 0 0 0 0 0 0 0 0 0 0 0 0 0 0 0 0 0 0 0 0 0 0 0 0 0 0 0 0 0 0 0 0
0 0 0 0 0 0 0 0 0 0 0 0 0 0 0 0 0 0 0 0 0 0 0 0 0 0 0 0 0 0 0 0 0 0 0 0 0 0 0 0 0 0 0
0 0 0 0 0 0 0 0 0 0 0 0 0 0 0 0 0 0 0 0 0 0 0 0 0 0 0 0 0 0 0 0 0 0 0 0 0 0 0 0 0 0 0
0 0 0 0 0 0 0 0 0 0 0 0 0 0 0 0 0 0 0 0 0 0 0 0 0 0 0 0 0 0 0 0 0 0 0 0 0 0 0 0 0 0 0
Wind_Speed
8 7 7 6 6 6 6 6 6 5 5 6 6 6 6 6 6 6 5 5 5 5 4 5 5 3 3 2 2 2 3 3 4 3 2 2 3 4 3 3 4 5 6
7 7 6 6 6 6 6 5 5 5 6 6 6 6 6 6 6 7 7 7 7 7 6 6 6 4 5 4 4 4 4 5 4 5 3 3 4 4 4 5 5 5 6
7 7 6 6 6 6 5 4 4 5 4 5 5 6 6 6 7 7 7 7 7 7 7 7 7 6 6 5 5 5 5 5 5 5 5 3 3 3 4 4 5 5 6
7 7 7 6 6 5 4 4 4 4 4 5 5 6 6 6 6 6 7 7 7 7 7 7 7 7 8 7 6 6 6 5 5 5 6 5 5 4 3 5 5 4 5
7 7 6 5 4 4 4 3 3 3 4 4 3 3 3 4 5 6 6 7 6 6 6 6 7 7 8 7 6 6 6 5 5 5 6 5 5 4 5 4 6 7 6
6 5 4 5 4 3 3 3 3 2 2 2 2 2 1 1 2 4 5 4 4 5 5 4 4 4 5 6 7 7 6 6 7 6 6 7 8 6 5 5 6 6 7
6 5 5 5 5 4 3 3 3 3 3 3 2 3 2 2 2 1 1 1 0 1 1 1 1 1 1 2 3 4 4 5 7 6 8 8 8 6 6 7 7 8 9
7 6 5 6 5 5 4 4 3 3 3 3 3 3 3 4 5 4 5 4 3 3 3 2 2 3 4 3 2 3 3 3 4 3 5 6 7 6 6 7 8 9 9
8 7 6 6 6 6 5 5 4 5 5 5 5 5 6 6 7 6 5 4 4 4 4 4 4 3 5 5 3 3 4 5 4 5 7 8 10 11 9 6 6 6 8
8 7 7 7 7 7 6 5 5 6 6 6 7 7 7 7 9 8 5 3 3 2 2 3 4 3 4 5 3 3 5 6 6 8 7 8 7 8 9 7 6 7 7
8 9 9 8 7 7 6 6 6 7 7 7 7 6 6 7 8 9 8 4 3 2 2 2 3 5 5 5 4 3 5 7 6 6 6 7 6 5 6 5 6 7 8
9 9 8 7 7 7 7 7 6 7 7 6 6 5 5 5 6 7 8 6 4 2 2 2 3 6 6 6 4 5 8 6 4 4 5 5 6 6 6 7 8 8 9
10 9 8 8 7 7 7 6 6 5 5 4 4 3 3 3 4 7 7 7 6 3 2 4 5 6 6 5 6 8 6 4 4 4 5 6 6 7 7 7 8 8 9
10 8 6 7 7 7 5 5 5 4 4 3 3 2 2 3 3 4 4 4 5 4 4 5 6 6 5 5 6 5 4 4 4 5 6 6 6 6 7 6 7 8 8
8 7 6 6 6 6 6 5 5 3 2 3 2 1 2 2 4 5 4 4 4 4 4 3 4 4 6 6 6 6 6 5 5 5 6 7 7 7 8 7 7 7 8
7 6 4 4 4 5 5 6 10 7 8 7 5 3 2 2 5 7 7 7 7 6 3 3 4 5 6 6 7 7 7 7 7 7 7 7 8 8 8 8 8 8 9
6 5 4 4 4 4 4 4 4 6 8 9 8 8 6 7 8 8 8 8 8 6 4 4 5 6 6 7 7 7 7 8 8 8 8 8 8 8 9 9 9 9 10
6 6 5 4 3 3 3 3 3 3 3 4 5 7 8 9 8 8 8 6 5 5 4 5 6 6 6 7 7 7 8 8 8 8 8 9 9 9 9 9 9 10 10
5 4 4 4 4 4 4 4 3 4 3 3 3 5 7 6 6 7 6 4 5 5 5 6 6 6 7 7 8 8 8 8 9 9 9 9 9 9 10 10 10 12 12
4 7 6 4 4 4 4 4 3 3 3 3 3 4 4 4 4 5 5 4 4 5 6 6 6 7 7 7 8 8 8 8 9 9 9 9 9 9 11 12 11 11 10
4 5 7 5 4 3 3 3 3 3 2 2 3 3 4 3 4 4 5 5 5 6 6 7 7 7 7 7 7 9 10 9 9 9 9 9 10 10 10 10 11 11 11
4 4 3 4 3 3 3 3 3 2 3 3 3 3 5 3 3 4 5 5 6 6 6 6 6 7 7 8 8 9 9 9 9 9 10 10 10 10 10 10 11 11 11
4 4 4 4 3 4 4 3 3 2 2 3 3 3 3 4 4 5 5 6 6 6 6 6 7 7 7 8 7 8 8 9 9 11 11 11 11 10 10 11 14 14 13
4 5 5 4 3 3 3 3 2 2 3 3 3 3 3 4 5 6 6 6 7 7 7 7 7 10 13 11 8 8 8 10 11 10 13 12 12 11 11 11 12 14 13
5 5 4 3 3 3 3 3 3 3 3 3 3 3 4 4 5 6 6 7 8 8 10 9 7 9 13 15 13 11 12 13 12 11 11 10 12 12 12 13 11 12 12
5 4 4 3 3 2 2 2 2 3 3 3 3 3 4 5 5 6 6 7 8 8 9 8 11 13 14 12 14 16 14 13 13 13 10 9 10 10 11 10 13 12 12
Wind_Direction
173 174 173 173 175 172 181 192 193 194 192 195 196 196 198 200 196 195 203 195 200 209 206 208 218 206 206 202 191 187 190 184 223 259 246 261 266 270 274 259 254 252 256
171 169 173 169 171 178 191 196 193 199 201 202 198 200 206 206 200 202 212 208 209 216 218 215 226 216 216 213 205 207 208 205 218 255 259 250 248 255 262 267 264 255 252
162 167 172 174 178 184 192 192 189 197 201 198 194 205 212 211 207 211 214 215 216 221 220 219 226 218 226 223 219 222 222 218 216 238 260 251 257 256 267 270 267 264 261
163 169 179 185 184 185 186 183 189 193 195 200 204 211 215 213 213 215 215 220 223 227 228 227 229 223 230 230 229 231 229 229 225 237 256 260 259 253 247 264 276 263 265
166 172 179 173 169 170 174 180 184 189 201 199 199 206 212 212 219 216 216 221 223 230 234 235 236 234 236 234 236 235 228 235 239 244 257 265 265 254 253 251 269 282 276
156 163 154 147 146 149 150 151 148 146 145 143 161 163 165 228 257 223 216 227 228 232 240 241 241 245 252 246 245 240 227 234 245 249 258 262 270 266 265 261 271 280 283
132 130 134 134 129 131 132 124 120 113 104 101 98 102 89 29 20 38 136 162 207 252 252 260 283 7 339 298 287 281 269 261 250 253 262 267 276 278 278 274 264 262 266
107 105 111 118 118 116 112 106 97 98 97 91 79 82 76 48 56 74 82 84 70 55 51 56 60 32 19 3 344 340 326 313 292 269 262 273 278 283 273 273 276 275 270
100 99 99 104 103 97 94 92 90 90 83 76 72 70 69 47 45 59 77 80 71 53 45 48 55 42 14 17 18 345 325 313 305 304 294 287 287 286 282 279 272 271 276
97 94 90 92 96 94 91 85 81 86 83 78 68 61 64 56 46 54 68 75 68 45 33 37 42 22 1 5 360 329 311 307 313 314 308 302 295 289 284 263 262 268 274
90 87 82 82 87 89 85 80 83 83 79 74 70 57 52 48 44 47 52 60 53 36 11 354 351 351 351 349 336 298 291 300 303 301 301 301 299 292 286 274 259 257 267
84 80 77 76 82 85 86 80 80 85 82 74 70 56 41 35 37 37 39 43 39 36 353 335 328 338 342 339 332 319 316 313 304 305 305 303 303 301 298 292 280 268 259
82 76 74 73 70 74 82 85 80 78 83 80 75 64 34 20 19 24 26 25 23 20 345 337 340 345 343 341 335 331 331 328 319 312 307 303 299 296 299 299 296 288 280
85 78 74 76 72 66 65 71 81 82 87 87 80 68 36 15 10 6 5 6 6 3 351 345 348 353 350 335 333 337 336 323 312 306 304 302 302 301 299 301 301 304 298
89 87 82 81 84 77 68 58 68 65 95 110 103 96 56 20 354 354 1 358 351 343 340 349 357 351 348 344 338 334 331 329 322 314 307 306 304 301 299 300 293 294 289
92 84 82 83 82 86 87 70 50 60 64 70 77 76 50 27 5 14 15 14 10 7 15 358 346 341 336 332 329 326 325 323 320 314 309 306 304 302 299 298 293 290 289
97 95 88 89 92 92 91 92 74 45 49 51 48 47 43 28 27 24 22 24 23 21 16 352 341 336 331 327 323 320 319 319 316 312 309 307 304 302 300 297 294 292 289
89 90 90 88 91 93 92 89 88 80 52 27 23 29 30 29 29 25 19 20 16 14 1 346 337 331 328 326 323 320 317 316 314 313 310 307 304 302 299 296 293 292 292
90 88 87 86 84 86 85 83 77 71 59 35 17 14 14 16 24 21 19 20 1 352 345 337 331 327 326 324 322 319 316 312 311 310 307 305 304 302 299 297 295 292 289
86 99 98 91 86 81 77 78 74 66 54 38 25 9 359 9 14 7 8 360 351 341 336 331 328 325 323 321 319 317 316 313 311 308 307 305 303 300 297 296 295 294 292
89 93 95 91 86 85 82 79 74 66 50 37 20 6 4 8 3 354 351 348 342 335 331 326 323 323 322 320 318 316 315 312 311 311 309 306 304 301 297 293 292 291 291
99 98 96 97 92 83 78 73 67 57 47 34 13 6 10 13 359 349 343 337 333 327 325 321 320 321 321 321 319 318 315 313 312 311 307 303 300 298 296 294 293 292 291
99 96 86 79 78 79 74 65 60 52 39 22 9 6 7 3 354 346 340 336 333 330 330 328 323 322 324 322 319 316 313 314 313 309 305 301 299 296 294 292 292 293 292
96 96 92 85 78 75 69 57 46 38 30 21 14 9 1 354 348 344 341 337 335 332 332 329 325 324 327 326 320 316 315 315 313 305 300 295 295 292 292 291 292 292 293
94 92 90 87 85 79 67 53 42 35 30 25 18 7 358 353 348 344 342 338 335 332 332 330 327 327 327 325 324 323 320 313 307 306 301 294 291 292 294 295 296 298 297
89 86 84 81 79 74 69 57 45 38 31 23 15 6 359 352 346 342 339 338 336 332 330 328 328 329 327 326 326 324 318 315 314 311 305 298 297 297 302 300 301 301 300